THORAD AGENA D DEB, 4653

Orbit data source: Space-Track

THORAD AGENA D DEB, 4653 is space debris in SSO originally from a launch on Wed, 08 Apr 1970 UTC launched from the Air Force Western Test Range (AFWTR). Debris objects in space refer to the collection of defunct objects orbiting the Earth. Examples of debris include non-operational satellites, rocket bodies, and fragments generated from explosions, collisions, or faulty payload assembly.

Loading next visibility...
THORAD AGENA D DEB details
Identifier
4653, 1970-025AM
Orbit
SSO
Last TLE update1 day ago
Origin
Flag of USGSFC (US)
ManufacturerUnknown
MissionSpacecraft
Bus & MotorUnknown
MassUnknown
Launch date (UTC)
1970-04-08 (55 years ago)
Launch vehicleUnknown
Launch site
Air Force Western Test Range (AFWTR)
Object type
Payload
Rocket body
Debris
Shape & HBRUnknown
Radar Cross SectionSmall (<0.1 m²)

Expand to show TLE details & history

TLE from 1 day ago
0 THORAD AGENA D DEB
1 04653U 70025AM  25023.49071679  .00022576  00000-0  54750-2 0  9992
2 04653 100.0074 229.8448 0016948 342.8601  17.2014 14.52841992792829
Epoch: 2025-01-23T11:46Z
Definitive object data (Epoch: 2025-01-23T11:46:37.93Z)
Latitude-0.00011°
Longitude-69.88071°
Altitude707.809 km
Speed7.508 km/s
True Right ascension15h 19m 22s
True Declination0° 00' 00"
Sunlit
Object was in daylight at TLE epoch
Visualization TLE readout
Latitude-68.02996°
Longitude-42.79432°
Altitude734.014 km
Speed7.491 km/s
Apparent Right ascension01h 22m 17s
Apparent Declination-74° 49' 03"
Sunlit
Object is in daylight
Visualization observer readout
Local Sidereal Time15:10:07
Azimuth168.629° S
Elevation-52.969°
Doppler factor1
Orbital elements
Apogee altitude725.583 km
Perigee altitude701.545 km
Semi-major axis7,091.701 km
Eccentricity0.0016948
Inclination100.0074°
RAAN229.8448°
Arg. of periapsis342.8601°
True anomaly17.25895°
Mean anomaly17.2014°
Eccentric anomaly17.23016°
Mean motion3.63427 °/min
BSTAR0.005475
Orbital period99.06 mins
Loading maneuver chart data...

THORAD AGENA D DEB Visibility forecast

Observer location: undefined°, undefined

Span
Click to sort rows by Start time (UTC) header in descending order
Start Az.
Max El. time (UTC)
Max El. Az.
Max El.
End time (UTC)
End Az.
7 mins2025-01-24 14:20:02.546Z203.718° SW2025-01-24 14:24:02.546Z264.196° W25.269°2025-01-24 14:27:02.546Z313.311° NW
7 mins2025-01-25 02:23:02.546Z28.388° NE2025-01-25 02:26:02.546Z100.157° ESE41.31°2025-01-25 02:30:02.546Z181.965° SSW
4 mins2025-01-25 04:02:02.546Z318.42° NNW2025-01-25 04:03:02.546Z304.479° NW15.059°2025-01-25 04:06:02.546Z265.2° W
7 mins2025-01-25 13:30:02.546Z160.567° S2025-01-25 13:33:02.546Z17.518° NNE44.684°2025-01-25 13:37:02.546Z346.075° N
|